Wetterdaten: aktuell Sonntag, 20.10.2019 18:31
Datum Zeit Temp. A. Feuchte A. Luftdruck Regen Wind Richtung Richtung ET UV Solar Taupunkt Windchill Windben Empfang
20.10.2019 18:31 10,7 C 95 % 1010,5 hPa 0,0 l/m 1,6 km/h (1 Bft) S 180 0,025 mm 0,0 UV-I 0 W/m 9,9 C 10,7 C 3,2 km/h (1 Bft) 100,00 %
20.10.2019 17:31 11,4 C 94 % 1010,6 hPa 0,0 l/m 0,0 km/h (0 Bft) S 180 0,025 mm 0,0 UV-I 24 W/m 10,5 C 11,4 C 1,6 km/h (1 Bft) 100,00 %
20.10.2019 16:31 11,9 C 94 % 1010,3 hPa 0,0 l/m 1,6 km/h (1 Bft) S 180 0,051 mm 0,0 UV-I 60 W/m 11,0 C 11,9 C 3,2 km/h (1 Bft) 100,00 %
20.10.2019 15:31 12,1 C 92 % 1010,3 hPa 0,0 l/m 1,6 km/h (1 Bft) O 90 0,051 mm 0,0 UV-I 121 W/m 10,8 C 12,1 C 3,2 km/h (1 Bft) 100,00 %
20.10.2019 14:31 11,3 C 94 % 1010,6 hPa 0,0 l/m 6,4 km/h (2 Bft) S-SO 157 0,051 mm 0,5 UV-I 139 W/m 10,4 C 11,3 C 11,3 km/h (2 Bft) 100,00 %
20.10.2019 13:31 10,9 C 95 % 1010,7 hPa 0,0 l/m 6,4 km/h (2 Bft) O-SO 112 0,051 mm 0,0 UV-I 71 W/m 10,1 C 10,9 C 9,7 km/h (2 Bft) 100,00 %
20.10.2019 12:31 10,6 C 96 % 1010,8 hPa 0,0 l/m 6,4 km/h (2 Bft) O-SO 112 0,051 mm 0,6 UV-I 120 W/m 10,0 C 10,6 C 9,7 km/h (2 Bft) 95,65 %
20.10.2019 11:31 10,1 C 97 % 1011,1 hPa 0,0 l/m 1,6 km/h (1 Bft) SO 135 0,025 mm 0,0 UV-I 77 W/m 9,6 C 10,1 C 3,2 km/h (1 Bft) 100,00 %
20.10.2019 10:31 9,8 C 98 % 1011,0 hPa 0,0 l/m 9,7 km/h (2 Bft) O-SO 112 0,025 mm 0,0 UV-I 84 W/m 9,5 C 8,4 C 12,9 km/h (3 Bft) 86,96 %
20.10.2019 09:31 9,8 C 98 % 1011,1 hPa 0,0 l/m 0,0 km/h (0 Bft) S-SO 157 0,000 mm 0,0 UV-I 45 W/m 9,5 C 9,8 C 1,6 km/h (1 Bft) 100,00 %
20.10.2019 08:31 9,5 C 97 % 1010,8 hPa 0,0 l/m 3,2 km/h (1 Bft) SO 135 0,000 mm 0,0 UV-I 18 W/m 9,0 C 9,5 C 4,8 km/h (1 Bft) 95,65 %
20.10.2019 07:31 9,5 C 97 % 1010,3 hPa 0,0 l/m 4,8 km/h (1 Bft) S-SO 157 0,000 mm 0,0 UV-I 0 W/m 9,0 C 9,3 C 8,0 km/h (2 Bft) 95,65 %
20.10.2019 06:31 9,7 C 97 % 1010,2 hPa 0,0 l/m 4,8 km/h (1 Bft) O 90 0,000 mm 0,0 UV-I 0 W/m 9,2 C 9,5 C 6,4 km/h (2 Bft) 91,30 %
20.10.2019 05:31 9,8 C 97 % 1010,0 hPa 0,0 l/m 1,6 km/h (1 Bft) SO 135 0,000 mm 0,0 UV-I 0 W/m 9,3 C 9,8 C 4,8 km/h (1 Bft) 100,00 %
20.10.2019 04:31 10,1 C 97 % 1009,8 hPa 0,0 l/m 3,2 km/h (1 Bft) O-SO 112 0,000 mm 0,0 UV-I 0 W/m 9,6 C 10,1 C 6,4 km/h (2 Bft) 95,65 %
20.10.2019 03:31 10,1 C 97 % 1009,6 hPa 0,0 l/m 0,0 km/h (0 Bft) SO 135 0,000 mm 0,0 UV-I 0 W/m 9,6 C 10,1 C 3,2 km/h (1 Bft) 100,00 %
20.10.2019 02:31 10,2 C 97 % 1009,7 hPa 0,0 l/m 4,8 km/h (1 Bft) O 90 0,000 mm 0,0 UV-I 0 W/m 9,7 C 10,2 C 11,3 km/h (2 Bft) 100,00 %
20.10.2019 01:31 10,2 C 97 % 1010,0 hPa 0,0 l/m 6,4 km/h (2 Bft) O 90 0,000 mm 0,0 UV-I 0 W/m 9,7 C 10,2 C 9,7 km/h (2 Bft) 100,00 %
20.10.2019 00:31 10,3 C 97 % 1010,2 hPa 0,0 l/m 6,4 km/h (2 Bft) O-SO 112 0,000 mm 0,0 UV-I 0 W/m 9,8 C 10,3 C 11,3 km/h (2 Bft) 100,00 %
20.10.2019 00:00 10,2 C 97 % 1010,5 hPa 0,0 l/m 6,4 km/h (2 Bft) SO 135 0,000 mm 0,0 UV-I 0 W/m 9,7 C 10,2 C 11,3 km/h (2 Bft) 100,00 %
_ Min-Zeit 07:49 15:27 03:22 - 00:51 - - - - - 07:52 10:09 02:25 00:04
Minimum _ 9,3 C 92 % 1009,5 hPa - 0,0 km/h (0 Bft) - - - - - 8,8 C 7,9 C 0,0 km/h (0 Bft) 86,96 %
_ Max-Zeit 15:54 07:07 10:52 00:00 02:40 - - 12:00 12:49 14:31 15:37 15:37 02:40 00:00
Maximum _ 12,4 C 98 % 1011,3 hPa 0,0 l/m 14,5 km/h
O-SO (3 Bft)
- - 0,051 mm 0,7 UV-I 139 W/m 11,2 C 12,3 C 17,7 km/h
O-SO (3 Bft)
100,00 %
Durchschnitt _ 10,4 C 96 % 1010,4 hPa #0,0 l/m 4,4 km/h (1 Bft) O-SO - #0,355 mm 0,5 UV-I 69 W/m 9,8 C 10,3 C 7,4 km/h (2 Bft) 97,75 %